• In Moldova, Republic
  • List of Countries
  • For 7 days
  • Water Temperature
  • Satellite Maps
  • Weather Map
  • Weather Widgets
  • user-avatar
    Login

    Hourly Weather Graz

    Today, 23 June, Friday

    Time Temperature Precipitation Wind Pressure Humidity
    00:00 +20°C° 0 mm 2 mps 723 mmHg 84%
    01:00 +21°C° 0 mm 1 mps 723 mmHg 86%
    02:00 +20°C° 0 mm 2 mps 723 mmHg 85%
    03:00 +20°C° 0 mm 2 mps 723 mmHg 85%
    04:00 +20°C° 0 mm 2 mps 723 mmHg 85%
    05:00 +21°C° 0 mm 2 mps 723 mmHg 81%
    06:00 +23°C° 0 mm 2 mps 723 mmHg 77%
    07:00 +24°C° 0 mm 1 mps 724 mmHg 76%
    08:00 +26°C° 0 mm 1 mps 724 mmHg 66%
    09:00 +28°C° 0 mm 2 mps 724 mmHg 57%
    10:00 +31°C° 0 mm 3 mps 724 mmHg 47%
    11:00 +31°C° 0 mm 3 mps 724 mmHg 44%
    12:00 +33°C° 0 mm 3 mps 724 mmHg 41%
    13:00 +34°C° 0 mm 4 mps 724 mmHg 37%
    14:00 +34°C° 0 mm 3 mps 724 mmHg 39%
    15:00 +33°C° 0 mm 3 mps 724 mmHg 41%
    16:00 +33°C° 0 mm 3 mps 724 mmHg 43%
    17:00 +30°C° 0 mm 3 mps 724 mmHg 51%
    18:00 +28°C° 0 mm 2 mps 724 mmHg 59%
    19:00 +27°C° 0 mm 1 mps 724 mmHg 66%
    20:00 +25°C° 0.1 mm 1 mps 724 mmHg 71%
    21:00 +23°C° 0.1 mm 1 mps 725 mmHg 77%
    22:00 +21°C° 0.1 mm 1 mps 725 mmHg 82%
    23:00 +21°C° 0.1 mm 1 mps 725 mmHg 84%

    Tomorrow, 24 June, Saturday

    Time Temperature Precipitation Wind Pressure Humidity
    00:00 +20°C° 0.1 mm 1 mps 725 mmHg 86%
    01:00 +19°C° 0.1 mm 1 mps 725 mmHg 89%
    02:00 +19°C° 0.1 mm 1 mps 725 mmHg 90%
    03:00 +19°C° 0.1 mm 1 mps 725 mmHg 91%
    04:00 +18°C° 0.1 mm 1 mps 725 mmHg 92%
    05:00 +20°C° 0 mm 1 mps 726 mmHg 86%
    06:00 +22°C° 0 mm 1 mps 726 mmHg 79%
    07:00 +24°C° 0 mm 1 mps 726 mmHg 73%
    08:00 +26°C° 0 mm 1 mps 726 mmHg 67%
    09:00 +27°C° 0 mm 1 mps 726 mmHg 62%
    10:00 +29°C° 0 mm 2 mps 726 mmHg 56%
    11:00 +29°C° 0.1 mm 2 mps 726 mmHg 55%
    12:00 +30°C° 0.1 mm 2 mps 726 mmHg 54%
    13:00 +31°C° 0.1 mm 2 mps 725 mmHg 53%
    14:00 +30°C° 0.7 mm 2 mps 725 mmHg 57%
    15:00 +30°C° 0.7 mm 2 mps 725 mmHg 62%
    16:00 +29°C° 0.7 mm 2 mps 724 mmHg 66%
    17:00 +28°C° 1.1 mm 2 mps 724 mmHg 73%
    18:00 +27°C° 1.1 mm 1 mps 724 mmHg 80%
    19:00 +25°C° 1.1 mm 1 mps 724 mmHg 87%
    20:00 +24°C° 0.9 mm 1 mps 724 mmHg 89%
    21:00 +22°C° 0.9 mm 1 mps 724 mmHg 92%
    22:00 +21°C° 0.9 mm 1 mps 724 mmHg 94%
    23:00 +21°C° 0.9 mm 1 mps 724 mmHg 94%

    Day after tomorrow, 25 June, Sunday

    Time Temperature Precipitation Wind Pressure Humidity
    00:00 +21°C° 0.9 mm 1 mps 724 mmHg 94%
    01:00 +20°C° 0.9 mm 1 mps 724 mmHg 94%
    02:00 +20°C° 0.7 mm 1 mps 723 mmHg 95%
    03:00 +20°C° 0.7 mm 1 mps 723 mmHg 95%
    04:00 +20°C° 0.7 mm 1 mps 723 mmHg 95%
    05:00 +21°C° 1.1 mm 1 mps 723 mmHg 94%
    06:00 +21°C° 1.1 mm 1 mps 723 mmHg 92%
    07:00 +22°C° 1.1 mm 1 mps 724 mmHg 91%
    08:00 +22°C° 1.8 mm 1 mps 724 mmHg 91%
    09:00 +21°C° 1.8 mm 2 mps 724 mmHg 90%
    10:00 +21°C° 1.8 mm 2 mps 724 mmHg 90%
    11:00 +20°C° 4.6 mm 2 mps 724 mmHg 92%
    12:00 +19°C° 4.6 mm 2 mps 724 mmHg 93%
    13:00 +18°C° 4.6 mm 2 mps 724 mmHg 95%
    14:00 +19°C° 2 mm 1 mps 724 mmHg 95%
    15:00 +18°C° 2 mm 1 mps 724 mmHg 95%
    16:00 +18°C° 2 mm 1 mps 724 mmHg 95%
    17:00 +19°C° 0.1 mm 1 mps 724 mmHg 94%
    18:00 +19°C° 0.1 mm 1 mps 724 mmHg 93%
    19:00 +19°C° 0.1 mm 1 mps 724 mmHg 92%
    20:00 +18°C° 0 mm 1 mps 724 mmHg 93%
    21:00 +16°C° 0 mm 1 mps 724 mmHg 93%
    22:00 +15°C° 0 mm 1 mps 724 mmHg 94%
    23:00 +15°C° 0 mm 1 mps 724 mmHg 94%

    26 June, Monday

    Time Temperature Precipitation Wind Pressure Humidity
    00:00 +14°C° 0 mm 1 mps 724 mmHg 94%
    01:00 +14°C° 0 mm 1 mps 724 mmHg 94%
    02:00 +14°C° 0 mm 1 mps 724 mmHg 94%
    03:00 +14°C° 0 mm 1 mps 724 mmHg 94%
    04:00 +13°C° 0 mm 1 mps 724 mmHg 93%
    05:00 +16°C° 0 mm 1 mps 724 mmHg 89%
    06:00 +17°C° 0 mm 0 mps 725 mmHg 84%
    07:00 +19°C° 0 mm 0 mps 725 mmHg 79%
    08:00 +23°C° 0 mm 1 mps 726 mmHg 70%
    09:00 +24°C° 0 mm 1 mps 726 mmHg 62%
    10:00 +26°C° 0 mm 1 mps 726 mmHg 54%
    11:00 +27°C° 0 mm 2 mps 725 mmHg 53%
    12:00 +27°C° 0 mm 2 mps 725 mmHg 52%
    13:00 +28°C° 0 mm 2 mps 725 mmHg 51%
    14:00 +28°C° 0 mm 2 mps 725 mmHg 53%
    15:00 +28°C° 0 mm 2 mps 724 mmHg 54%
    16:00 +28°C° 0 mm 3 mps 724 mmHg 56%
    17:00 +26°C° 0 mm 2 mps 724 mmHg 64%
    18:00 +25°C° 0 mm 2 mps 724 mmHg 72%
    19:00 +23°C° 0 mm 1 mps 723 mmHg 80%
    20:00 +21°C° 0 mm 1 mps 723 mmHg 85%
    21:00 +19°C° 0 mm 1 mps 723 mmHg 90%
    22:00 +16°C° 0 mm 1 mps 723 mmHg 94%
    23:00 +16°C° 0 mm 1 mps 723 mmHg 95%

    27 June, Tuesday

    Time Temperature Precipitation Wind Pressure Humidity
    00:00 +16°C° 0 mm 1 mps 723 mmHg 95%
    01:00 +15°C° 0 mm 1 mps 722 mmHg 95%
    02:00 +15°C° 0 mm 1 mps 722 mmHg 95%
    03:00 +15°C° 0 mm 1 mps 722 mmHg 95%
    04:00 +15°C° 0 mm 1 mps 722 mmHg 95%
    05:00 +18°C° 0 mm 1 mps 722 mmHg 91%
    06:00 +20°C° 0 mm 1 mps 722 mmHg 87%
    07:00 +22°C° 0 mm 1 mps 722 mmHg 82%
    08:00 +24°C° 0 mm 2 mps 722 mmHg 75%
    09:00 +26°C° 0 mm 2 mps 722 mmHg 67%
    10:00 +27°C° 0 mm 2 mps 722 mmHg 59%
    11:00 +28°C° 0 mm 3 mps 722 mmHg 56%
    12:00 +29°C° 0 mm 3 mps 722 mmHg 53%
    13:00 +31°C° 0 mm 3 mps 721 mmHg 50%
    14:00 +30°C° 0.5 mm 3 mps 721 mmHg 53%
    15:00 +30°C° 0.5 mm 3 mps 721 mmHg 56%
    16:00 +30°C° 0.5 mm 3 mps 720 mmHg 60%
    17:00 +29°C° 0.1 mm 3 mps 720 mmHg 66%
    18:00 +27°C° 0.1 mm 2 mps 720 mmHg 72%
    19:00 +26°C° 0.1 mm 2 mps 720 mmHg 77%
    20:00 +24°C° 0 mm 2 mps 720 mmHg 80%
    21:00 +21°C° 0 mm 2 mps 720 mmHg 83%
    22:00 +20°C° 0 mm 2 mps 719 mmHg 86%
    23:00 +19°C° 0 mm 2 mps 719 mmHg 87%

    28 June, Wednesday

    Time Temperature Precipitation Wind Pressure Humidity
    00:00 +19°C° 0 mm 2 mps 719 mmHg 88%
    01:00 +19°C° 0 mm 2 mps 719 mmHg 89%
    02:00 +18°C° 0 mm 2 mps 718 mmHg 90%
    03:00 +18°C° 0 mm 2 mps 718 mmHg 90%
    04:00 +17°C° 0 mm 2 mps 718 mmHg 90%
    05:00 +19°C° 0 mm 2 mps 718 mmHg 86%
    06:00 +21°C° 0 mm 2 mps 718 mmHg 82%
    07:00 +23°C° 0 mm 2 mps 718 mmHg 77%
    08:00 +25°C° 0 mm 3 mps 718 mmHg 69%
    09:00 +27°C° 0 mm 3 mps 718 mmHg 61%
    10:00 +29°C° 0 mm 4 mps 718 mmHg 53%
    11:00 +30°C° 0 mm 4 mps 718 mmHg 51%
    12:00 +32°C° 0 mm 5 mps 718 mmHg 49%
    13:00 +33°C° 0 mm 6 mps 718 mmHg 46%
    14:00 +33°C° 0 mm 5 mps 717 mmHg 47%
    15:00 +32°C° 0 mm 5 mps 717 mmHg 47%
    16:00 +32°C° 0 mm 4 mps 717 mmHg 48%
    17:00 +29°C° 0.1 mm 4 mps 716 mmHg 55%
    18:00 +28°C° 0.1 mm 3 mps 716 mmHg 61%
    19:00 +26°C° 0.1 mm 3 mps 716 mmHg 68%
    20:00 +25°C° 0.2 mm 3 mps 716 mmHg 72%
    21:00 +23°C° 0.2 mm 2 mps 716 mmHg 76%
    22:00 +21°C° 0.2 mm 2 mps 716 mmHg 79%
    23:00 +20°C° 0 mm 2 mps 715 mmHg 82%
    Show more